Showing default

NOVASAR 1, 43619

Orbit data source: Space-Track

NOVASAR 1, 43619 is a payload satellite owned by SSTL (Astrium) (UK) in SSO that was launched on Sun, 16 Sep 2018 UTC via a PSLV launch vehicle from the Sirharikota (SRI). Payload-class satellites include a variety of spacecraft equipped with specific instruments for various scientific and technological missions. These include communications satellites like Starlink; space stations such as the ISS; scientific satellites like the Hubble; Earth observation satellites from companies like Planet Labs, Umbra, and HawkEye 360; GPS; miniature CubeSats for education and research; and military/defense satellites.

Loading next visibility...
Identifier
43619, 2018-071B
Orbit
SSO
Country
Flag of UKUK
Related business
Manufacturer
SSTL (Astrium)
Mission
Operational Commercial Imaging
Bus & Motor
NOVASAR-S, XE
Mass
445 kg wet, 400 kg dry
Launch date (UTC)
Icon of a cake. It is the launch day of the satellite!2018-09-16 (7 years ago)
Launch vehicle
PSLV
Launch site
Sirharikota (SRI)
Object type
Payload
Rocket body
Debris
Shape & HBR
Tri Box, 1.5 m
Radar Cross Section
3.500 m², Large (>1 m²)

Expand to show TLE details & history
Last TLE update: 10 hours ago

TLE from 10 hours ago
0 NOVASAR 1
1 43619U 18071B   25259.26004447  .00000480  00000-0  47468-4 0  9995
2 43619  97.5419 137.1399 0001315  55.7666 304.3680 14.96177535381978
Epoch: 2025-09-16T06:14Z
TLE epoch observation values (Epoch: 2025-09-16T06:14:27.842Z)
Latitude
-0.00003°
Longitude
48.07099°
Altitude
581.258 km
Speed
7.57 km/s
True Right ascension
09h 08m 33s
True Declination
0° 00' 00"
Sunlit
Object was in daylight at epoch
Visualization orbit readout
Latitude
Unknown
Longitude
Unknown
Altitude
Unknown
Speed
Unknown
Apparent Right ascension
Unknown
Apparent Declination
Unknown
Sunlit
N/A
Visualization observer readout
Local Sidereal Time
09:27:00
Azimuth
Unknown
Elevation
Unknown
Doppler factor
Unknown
Orbital elements
Apogee altitude
576.638 km
Perigee altitude
574.809 km
Semi-major axis
6,953.861 km
Eccentricity
0.00013
Inclination
97.5419°
RAAN
137.1399°
Arg. of periapsis
55.7666°
True anomaly
304.35556°
Mean anomaly
304.368°
Eccentric anomaly
304.36178°
Mean motion
3.74287 °/min
Orbital period
96.18 mins
BSTAR
0.000047468
Loading maneuver chart data...
Computing Atmospheric mass density...
Loading historical data...
Loading historical data...
Loading historical data...
Loading historical data...
Loading historical data...
Loading historical data...
Loading historical data...
Other satellites on launch #71 in the year 2018 (2018-09-16 UTC)

Documentation

Showing up to 5 results
|